User: anonymous   Login
Location: Unspecified
(0.0000°N, 0.0000°E)
Time: 22:55:38
(UTC+00:00)
Language:

Transit 2A - Orbit

View from above orbital plane
View from above orbital plane
View from above satellite
View from above satellite

Ground track
Ground track

The orbit data is extracted from the following two-line orbital elements,

1    45U 60007A   19322.86151105 -.00000033  00000-0  18650-4 0  9997
2    45  66.6948 218.4899 0248568 110.2743 252.5263 14.33656042 92372
Epoch (UTC): 18 November 2019 20:40:34
Eccentricity: 0.0248568
inclination: 66.6948°
perigee height: 601 km
apogee height: 957 km
right ascension of ascending node: 218.4899°
argument of perigee: 110.2743°
revolutions per day: 14.33656042
mean anomaly at epoch: 252.5263°
orbit number at epoch: 9237

The dashed part of the orbit path shows where the satellite is in the earth's shadow,  

DLR